Date String (YYYY-MM-DD hh:mm:ss) UTC,Instrument flags,absolute air pressure of the measurement (hPa),sample flow rate (lpm),inlet stack bypass flow (lpm),air temperature of the measurement (°C),ambient temperature measured by the external sensor (°C),aerosol sample conditioner tube jacket temperature (°C),OPC LED temperature (°C),internal box temperature (°C),relative humidity of the measurement (%),span deviation,mass concentration of particles derived from Lorenz-Mie calculation of OPC scattering (μg/m³),mass concentration of particles derived from Lorenz-Mie calculation of OPC scattering (μg/m³),mass concentration of particles derived from Lorenz-Mie calculation of OPC scattering (μg/m³)
DateTimeUTC,F1_M11,P_M11,Q1_M11,Q2_M11,T1_M11,T2_M11,T3_M11,T4_M11,T5_M11,U1_M11,ZSPAN_M11,X2_M11,X0_M11,X1_M11
2024-03-22 14:00:00,SystemResetWarning,0831.5,5.00,000.00,019.7,019.2,000.0,028.3,021.6,21.6,0000.0,0004.02,0013.23,0002.88
2024-03-22 14:01:00,SystemResetWarning,0831.5,5.00,000.00,019.7,019.1,000.0,028.3,021.6,21.9,0000.0,0004.01,0013.08,0002.88
2024-03-22 14:02:00,SystemResetWarning,0831.5,5.00,000.00,019.7,019.1,000.0,028.3,021.6,21.7,0000.0,0004.03,0012.29,0002.90
2024-03-22 14:03:00,SystemResetWarning,0831.5,5.01,000.00,019.7,019.1,000.0,028.3,021.6,21.4,0000.0,0004.13,0011.48,0002.93
2024-03-22 14:04:00,SystemResetWarning,0831.5,5.01,000.00,019.7,019.1,000.0,028.3,021.5,21.3,0000.0,0004.22,0011.50,0002.94
2024-03-22 14:05:00,SystemResetWarning,0831.5,5.00,000.00,019.7,019.0,000.0,028.3,021.5,21.0,0000.0,0004.27,0011.69,0002.96
2024-03-22 14:06:00,SystemResetWarning,0831.5,4.99,000.00,019.7,019.0,000.0,028.3,021.5,21.2,0000.0,0004.25,0012.33,0002.97
2024-03-22 14:07:00,SystemResetWarning,0831.5,4.99,000.00,019.7,019.0,000.0,028.3,021.5,21.5,0000.0,0004.26,0012.65,0003.00
2024-03-22 14:08:00,SystemResetWarning,0831.5,4.99,000.00,019.7,019.0,000.0,028.3,021.5,21.5,0000.0,0004.25,0012.72,0002.99
2024-03-22 14:09:00,SystemResetWarning,0831.5,5.01,000.00,019.7,019.0,000.0,028.3,021.5,21.8,0000.0,0004.22,0012.97,0003.01
2024-03-22 14:10:00,SystemResetWarning,0831.5,5.00,000.00,019.7,019.0,000.0,028.3,021.5,22.0,0000.0,0004.27,0013.13,0003.01
2024-03-22 14:11:00,SystemResetWarning,0831.4,5.01,000.00,019.7,019.0,000.0,028.3,021.5,22.0,0000.0,0004.29,0013.36,0003.03
2024-03-22 14:12:00,SystemResetWarning,0831.5,5.00,000.00,019.7,019.0,000.0,028.3,021.5,21.6,0000.0,0004.30,0013.24,0003.06
2024-03-22 14:13:00,SystemResetWarning,0831.5,5.00,000.00,019.7,019.0,000.0,028.3,021.5,21.4,0000.0,0004.32,0014.57,0003.07
2024-03-22 14:14:00,SystemResetWarning,0831.5,5.00,000.00,019.7,019.0,000.0,028.3,021.5,21.7,0000.0,0004.25,0015.78,0003.05
2024-03-22 14:15:00,SystemResetWarning,0831.5,5.00,000.00,019.7,018.9,000.0,028.3,021.5,21.4,0000.0,0004.23,0015.87,0003.05
2024-03-22 14:16:00,SystemResetWarning,0831.6,5.00,000.00,019.7,018.9,000.0,028.3,021.5,21.3,0000.0,0004.19,0015.85,0003.07
2024-03-22 14:17:00,SystemResetWarning,0831.6,5.00,000.00,019.7,018.9,000.0,028.3,021.5,21.4,0000.0,0004.21,0015.58,0003.08
2024-03-22 14:18:00,SystemResetWarning,0831.6,5.00,000.00,019.7,018.9,000.0,028.3,021.4,21.3,0000.0,0004.24,0015.75,0003.09
2024-03-22 14:19:00,SystemResetWarning,0831.6,5.00,000.00,019.7,018.9,000.0,028.3,021.4,21.3,0000.0,0004.26,0015.89,0003.11
2024-03-22 14:20:00,SystemResetWarning,0831.6,5.00,000.00,019.7,018.9,000.0,028.3,021.5,20.9,0000.0,0004.26,0015.60,0003.11
2024-03-22 14:21:00,SystemResetWarning,0831.6,5.00,000.00,019.7,018.9,000.0,028.3,021.4,21.1,0000.0,0004.17,0015.40,0003.12
2024-03-22 14:22:00,SystemResetWarning,0831.6,4.99,000.00,019.6,018.9,000.0,028.3,021.4,21.0,0000.0,0004.14,0014.75,0003.11
2024-03-22 14:23:00,SystemResetWarning,0831.6,5.01,000.00,019.6,018.9,000.0,028.3,021.4,20.8,0000.0,0004.15,0014.04,0003.09
2024-03-22 14:24:00,SystemResetWarning,0831.6,5.00,000.00,019.6,018.9,000.0,028.2,021.4,20.9,0000.0,0004.09,0012.97,0003.06
2024-03-22 14:25:00,SystemResetWarning,0831.6,5.00,000.00,019.6,018.9,000.0,028.2,021.4,20.9,0000.0,0004.09,0011.16,0003.05
2024-03-22 14:26:00,SystemResetWarning,0831.7,5.00,000.00,019.6,018.9,000.0,028.2,021.4,20.9,0000.0,0004.06,0010.85,0003.02
2024-03-22 14:27:00,SystemResetWarning,0831.6,5.00,000.00,019.6,018.9,000.0,028.2,021.4,21.2,0000.0,0003.99,0010.70,0002.98
2024-03-22 14:28:00,SystemResetWarning,0831.6,5.00,000.00,019.6,018.9,000.0,028.2,021.4,21.9,0000.0,0003.96,0011.07,0002.96
2024-03-22 14:29:00,SystemResetWarning,0831.6,5.00,000.00,019.6,018.9,000.0,028.2,021.4,22.1,0000.0,0003.96,0010.60,0002.93
2024-03-22 14:30:00,SystemResetWarning,0831.6,5.00,000.00,019.6,018.9,000.0,028.2,021.4,22.3,0000.0,0003.98,0010.76,0002.91
2024-03-22 14:31:00,SystemResetWarning,0831.6,5.01,000.00,019.6,018.9,000.0,028.2,021.4,21.1,0000.0,0003.97,0010.55,0002.87
2024-03-22 14:32:00,SystemResetWarning,0831.6,5.00,000.00,019.6,018.9,000.0,028.2,021.4,21.8,0000.0,0003.96,0009.38,0002.84
2024-03-22 14:33:00,SystemResetWarning,0831.6,5.00,000.00,019.6,018.9,000.0,028.2,021.4,21.2,0000.0,0003.93,0009.22,0002.81
2024-03-22 14:34:00,SystemResetWarning,0831.6,5.00,000.00,019.6,018.9,000.0,028.2,021.4,21.0,0000.0,0003.86,0009.13,0002.77
2024-03-22 14:35:00,SystemResetWarning,0831.6,5.00,000.00,019.6,018.9,000.0,028.2,021.4,21.4,0000.0,0003.85,0009.09,0002.76
2024-03-22 14:36:00,SystemResetWarning,0831.6,5.00,000.00,019.6,018.9,000.0,028.2,021.4,21.6,0000.0,0003.84,0009.82,0002.74
2024-03-22 14:37:00,SystemResetWarning,0831.8,5.00,000.00,019.6,019.0,000.0,028.2,021.4,21.3,0000.0,0003.83,0009.94,0002.72
2024-03-22 14:38:00,SystemResetWarning,0831.6,5.00,000.00,019.6,019.0,000.0,028.2,021.4,20.7,0000.0,0003.81,0009.97,0002.69
2024-03-22 14:39:00,SystemResetWarning,0831.6,5.00,000.00,019.6,019.0,000.0,028.2,021.4,20.2,0000.0,0003.77,0009.73,0002.63
2024-03-22 14:40:00,SystemResetWarning,0831.6,5.00,000.00,019.6,019.0,000.0,028.2,021.4,20.7,0000.0,0003.69,0009.87,0002.57
2024-03-22 14:41:00,SystemResetWarning,0831.6,5.00,000.00,019.6,019.0,000.0,028.2,021.4,20.6,0000.0,0003.65,0010.84,0002.51
2024-03-22 14:42:00,SystemResetWarning,0831.6,5.00,000.00,019.6,019.0,000.0,028.2,021.4,20.7,0000.0,0003.60,0010.80,0002.45
2024-03-22 14:43:00,SystemResetWarning,0831.6,4.99,000.00,019.6,019.0,000.0,028.2,021.4,20.6,0000.0,0003.54,0011.00,0002.40
2024-03-22 14:44:00,SystemResetWarning,0831.6,5.00,000.00,019.6,019.0,000.0,028.2,021.4,20.9,0000.0,0003.50,0011.50,0002.36
2024-03-22 14:45:00,SystemResetWarning,0831.6,5.00,000.00,019.6,019.0,000.0,028.2,021.4,20.4,0000.0,0003.50,0011.64,0002.33
2024-03-22 14:46:00,SystemResetWarning,0831.6,5.00,000.00,019.6,019.0,000.0,028.2,021.4,20.1,0000.0,0003.46,0011.63,0002.30
2024-03-22 14:47:00,SystemResetWarning,0831.6,5.01,000.00,019.6,019.0,000.0,028.2,021.4,19.9,0000.0,0003.39,0011.13,0002.26
2024-03-22 14:48:00,SystemResetWarning,0831.6,5.00,000.00,019.6,019.0,000.0,028.2,021.4,19.9,0000.0,0003.32,0010.78,0002.21
2024-03-22 14:49:00,SystemResetWarning,0831.5,5.00,000.00,019.6,019.0,000.0,028.2,021.4,20.3,0000.0,0003.28,0010.66,0002.16
2024-03-22 14:50:00,SystemResetWarning,0831.6,5.00,000.00,019.6,019.0,000.0,028.2,021.4,19.8,0000.0,0003.27,0010.30,0002.12
2024-03-22 14:51:00,SystemResetWarning,0831.6,5.00,000.00,019.6,019.0,000.0,028.2,021.4,19.9,0000.0,0003.27,0009.76,0002.10
2024-03-22 14:52:00,SystemResetWarning,0831.6,4.99,000.00,019.6,019.0,000.0,028.2,021.4,19.7,0000.0,0003.20,0008.33,0002.07
2024-03-22 14:53:00,SystemResetWarning,0831.5,5.00,000.00,019.7,019.0,000.0,028.2,021.4,19.3,0000.0,0003.15,0008.09,0002.05
2024-03-22 14:54:00,SystemResetWarning,0831.5,5.00,000.00,019.6,019.0,000.0,028.2,021.4,19.8,0000.0,0003.14,0008.38,0002.02
2024-03-22 14:55:00,SystemResetWarning,0831.6,5.00,000.00,019.6,019.0,000.0,028.2,021.4,19.6,0000.0,0003.09,0007.70,0001.98
2024-03-22 14:56:00,SystemResetWarning,0831.6,5.01,000.00,019.6,019.0,000.0,028.2,021.4,19.6,0000.0,0002.98,0007.67,0001.94
2024-03-22 14:57:00,SystemResetWarning,0831.6,5.01,000.00,019.6,018.9,000.0,028.2,021.4,19.6,0000.0,0002.90,0008.07,0001.91
2024-03-22 14:58:00,SystemResetWarning,0831.6,5.00,000.00,019.6,018.9,000.0,028.2,021.4,20.2,0000.0,0002.90,0007.94,0001.90
2024-03-22 14:59:00,SystemResetWarning,0831.6,5.00,000.00,019.6,018.9,000.0,028.2,021.4,19.6,0000.0,0002.96,0008.02,0001.89
